FloripaSat 1
1 44885U 19093G   25197.80494707  .00003942  00000-0  33153-3 0  9990
2 44885  97.8184 285.4891 0012704  82.1220 278.1443 14.98795951302321
RS-44
1 44909U 19096E   25197.53340370  .00000024  00000-0  53730-4 0  9998
2 44909  82.5196 202.7261 0216833 208.9108 149.9841 12.79742100259410
UPMSat 2
1 46276U 20061E   25197.75564967  .00075217  00000-0  53775-3 0  9999
2 46276  97.2408 273.5134 0001855 146.7733 213.3648 15.73526153271300
SALSAT
1 46495U 20068K   25197.86988728  .00005378  00000-0  23050-3 0  9990
2 46495  97.8626 177.6358 0012271  40.8347 319.3806 15.23155492264205
CubeSX-Sirius-HSE
1 47951U 21022V   25157.62701764  .07883385  25648-5  89537-3 0  9993
2 47951  97.4004  72.1904 0010275 223.9924 136.0557 16.36879307233400
CubeSX-HSE
1 47952U 21022W   25157.69972699  .06655353  25454-5  93288-3 0  9992
2 47952  97.3980  72.5414 0010307 219.3637 140.6911 16.34906352233436
GRBAlpha
1 47959U 21022AD  25160.45426279  .07940347  25506-5  90589-3 0  9995
2 47959  97.3899  75.6235 0011032 227.2558 132.7812 16.36806138232695
TUBIN
1 48900U 21059X   25197.81726899  .00041490  00000-0  45188-3 0  9999
2 48900  97.6769  10.1551 0003970 103.6116 256.5584 15.63308418225853
LEDSAT
1 49069U 21073D   25197.75840168  .00068586  00000-0  68526-3 0  9997
2 49069  97.3862 280.9754 0007294 286.8845  73.1615 15.65367810217244
CUTE
1 49263U 21088D   25197.86070897  .00032647  00000-0  61565-3 0  9990
2 49263  97.4493 275.2280 0009007 106.7060 253.5180 15.48381980210198
TeikyoSat 4
1 49396U 21102B   25197.65073182  .00001753  00000-0  11844-3 0  9990
2 49396  97.4082 234.7393 0012721  14.1692 345.9891 15.07766104202134
Z-Sat
1 49399U 21102E   25197.88132925  .00002749  00000-0  15168-3 0  9998
2 49399  97.3778 238.2907 0017173 340.0466  20.0092 15.14661024202625
KOSEN 1
1 49402U 21102H   25197.85335521  .00004704  00000-0  21669-3 0  9993
2 49402  97.3681 241.9636 0014201 312.4794  47.5241 15.20686454202956
HO-113
1 50466U 21131B   25197.84421231  .00000329  00000-0  11645-3 0  9992
2 50466  98.5107 287.0157 0004714  39.8527 320.3007 14.40848225186810
Foresail-1
1 52766U 22057AL  25176.64799660  .13857605  27391-5  25307-3 0  9992
2 52766  97.5832 331.2310 0012137 233.7199 258.4922 16.46795272172486
SNUGLITE 2
1 52899U 22065F   25197.34789632  .00000713  00000-0  14753-3 0  9998
2 52899  98.1733 338.9732 0007584   8.4641 351.6687 14.63279284161862
UmKA 1 (RS40S)
1 57172U 23091G   25197.84531202  .00003817  00000-0  20373-3 0  9993
2 57172  97.5555 253.0368 0013872 199.3317 160.7391 15.15674565113121
CubeBel-2 (EU11S)
1 57175U 23091K   25197.84085368  .00006639  00000-0  31221-3 0  9992
2 57175  97.5554 254.4109 0011522 204.9041 155.1639 15.19858579113214
VERONIKA
1 58261U 23174F   25197.79101768  .00250587  00000-0  11552-2 0  9995
2 58261  97.4069 286.5195 0007014 238.4124 121.6461 15.82875946 94549
ENSO
1 58470U 23185J   25197.83295904  .00047260  00000-0  59618-3 0  9998
2 58470  97.3708 274.2422 0004807 293.1375  66.9375 15.59444240 90836
EIRSAT-1
1 58472U 23185L   25197.83473221  .00135941  00000-0  87641-3 0  9991
2 58472  97.3643 276.9072 0004582 262.4436  97.6309 15.75736638 91015
SONATE-2
1 59112U 24043Q   25197.36112450  .00011743  00000-0  32900-3 0  9990
2 59112  97.5180 329.3118 0010163 349.3691  10.7336 15.36726231 75988
MO-122
1 60209U 24125G   25197.56174445  .00013669  00000-0  37546-3 0  9994
2 60209  97.2761  48.7863 0018184  10.4049 349.7568 15.37177057 57633
GRBBeta
1 60237U 24128C   25197.59864216  .00002766  00000-0  21440-3 0  9995
2 60237  61.9924 310.4588 0054460  65.5140 295.1617 15.02891276 55765
Curium One
1 60242U 24128H   25197.70469981  .00005164  00000-0  35984-3 0  9997
2 60242  61.9821 307.8203 0054361  61.7536 298.9029 15.05553396 55824
ROBUSTA-3A
1 60243U 24128J   25197.58614625  .00005130  00000-0  36262-3 0  9994
2 60243  61.9893 309.1890 0053351  59.4390 301.1951 15.05076576 55798
CatSat
1 60246U 24125J   25197.56169306  .00007887  00000-0  25953-3 0  9999
2 60246  97.2565  47.5715 0040688 324.2805  35.5715 15.30968101 55643
HYPERVIEW-1G (RS66S)
1 61772U 24199AP  25197.87193469  .00015766  00000-0  43991-3 0  9993
2 61772  97.3485  66.6747 0014807  64.2106 296.0664 15.36716359 82689
AO-123
1 61781U 24199AY  25197.89395113  .00004894  00000-0  17701-3 0  9995
2 61781  97.3502  65.1670 0017346  68.4719 291.8368 15.28757073 82587
ZIMSAT 2
1 61783U 24199BA  25197.85172742  .00029866  00000-0  67759-3 0  9998
2 61783  97.3456  67.5756 0014210  61.9520 298.3163 15.42908859 85891
HADES-R (SO-124)
1 62690U 25009CK  25197.16442432  .00026407  00000-0  87615-3 0  9998
2 62690  97.4077 277.8803 0001168 331.2592  28.8585 15.31220938 27745
HYDRA-T
1 62692U 25009CM  25197.20852091  .00025212  00000-0  82870-3 0  9992
2 62692  97.4076 277.9735 0000968 318.5732  41.5436 15.31532450 27755
JINJUSat 1B
1 63210U 25052A   25197.70061214  .00008296  00000-0  37391-3 0  9992
2 63210  97.4369  91.3620 0004342 165.5630 194.5731 15.21284913 18894
NUSHSAT 1
1 63211U 25052B   25197.62336065  .00009081  00000-0  40547-3 0  9993
2 63211  97.4359  91.2964 0004147 170.2259 189.9059 15.21580866 18883
TEVEL2-4
1 63213U 25052D   25197.44719271  .00008615  00000-0  38857-3 0  9992
2 63213  97.4275  90.9416 0002792 180.2511 179.8724 15.21251271 18855
TEVEL2-5
1 63214U 25052E   25197.51407235  .00009346  00000-0  42152-3 0  9990
2 63214  97.4275  91.0054 0002794 180.0769 180.0466 15.21229930 18866
TEVEL2-6
1 63215U 25052F   25197.45140996  .00008651  00000-0  39092-3 0  9999
2 63215  97.4274  90.9381 0002789 182.5428 177.5794 15.21186348 18859
TEVEL2-1
1 63217U 25052H   25197.46783963  .00008728  00000-0  39700-3 0  9990
2 63217  97.4251  90.8768 0002437 200.0218 160.0923 15.20960761 18856
TEVEL2-2
1 63218U 25052J   25197.27073895  .00007673  00000-0  34944-3 0  9999
2 63218  97.4253  90.6832 0002436 202.2480 157.8650 15.20958412 18821
TEVEL2-3
1 63219U 25052K   25197.59995695  .00008948  00000-0  40692-3 0  9999
2 63219  97.4252  91.0066 0002459 200.5280 159.5857 15.20959284 18870
TEVEL2-8
1 63237U 25052AD  25197.69494642  .00008044  00000-0  37926-3 0  9999
2 63237  97.4314  90.9829 0006288 237.2603 122.8026 15.19732293 18872
TEVEL2-9
1 63238U 25052AE  25197.69883878  .00008015  00000-0  37865-3 0  9993
2 63238  97.4319  90.9807 0006395 237.5244 122.5373 15.19664173 18870
TEVEL2-7
1 63239U 25052AF  25197.70161119  .00008207  00000-0  38798-3 0  9992
2 63239  97.4317  90.9755 0006396 238.0094 122.0519 15.19631877 18873
HYDRA-W
1 63490U 25052BL  25197.24856842  .00017399  00000-0  70348-3 0  9993
2 63490  97.4267  91.0385 0009570 235.1274 124.9065 15.24752651 18846
HADES-ICM (SO-125)
1 63492U 25052BN  25197.47180868  .00019269  00000-0  79045-3 0  9999
2 63492  97.4270  91.2067 0009796 239.7240 120.3028 15.24241096 18872
